SCO17EF EGPH-EGGD

Flight info

Callsign SCO17EF
Flight time 0h 56m
Altitude 33000
Route GOSAM P600 FENIK L612 NAVSO DCT ADZOP DCT EGTOC DCT NOKIN N862 KARNO/N0409F320 DCT ALHUP DCT LUCSA/N0355F230 N862 WEVBE
Aircraft A320/M-SDE3FGHIRWY/LB1

Departure

Time 2026-04-26 21:12
Airport Edinburgh Airport (EGPH)

Arrival

Time 2026-04-26 22:09
Airport Bristol Airport (EGGD)
Time Latitude Longitude Altitude Speed Heading
2026-04-26 20:20 55.94854 -3.36604 114 ft 0 kts 145°
2026-04-26 20:20 55.94860 -3.36611 113 ft 0 kts 145°
2026-04-26 21:03 55.94870 -3.36623 112 ft 4 kts 145°
2026-04-26 21:03 55.94892 -3.36650 114 ft 4 kts 145°
2026-04-26 21:03 55.94911 -3.36679 112 ft 4 kts 108°
2026-04-26 21:03 55.94911 -3.36701 112 ft 0 kts 59°
2026-04-26 21:04 55.94923 -3.36666 114 ft 0 kts 59°
2026-04-26 21:06 55.94923 -3.36665 114 ft 1 kts 59°
2026-04-26 21:07 55.94946 -3.36597 116 ft 8 kts 59°
2026-04-26 21:07 55.94972 -3.36519 115 ft 7 kts 59°
2026-04-26 21:07 55.94997 -3.36446 113 ft 7 kts 59°
2026-04-26 21:07 55.95026 -3.36390 114 ft 6 kts 28°
2026-04-26 21:08 55.95062 -3.36397 115 ft 6 kts 344°
2026-04-26 21:08 55.95112 -3.36347 115 ft 9 kts 57°
2026-04-26 21:08 55.95144 -3.36251 114 ft 9 kts 59°
2026-04-26 21:08 55.95175 -3.36159 115 ft 10 kts 59°
2026-04-26 21:09 55.95219 -3.36029 115 ft 12 kts 58°
2026-04-26 21:09 55.95262 -3.35905 115 ft 11 kts 58°
2026-04-26 21:09 55.95300 -3.35791 113 ft 10 kts 59°
2026-04-26 21:09 55.95336 -3.35683 115 ft 10 kts 59°
2026-04-26 21:10 55.95373 -3.35575 115 ft 10 kts 59°
2026-04-26 21:10 55.95408 -3.35471 113 ft 9 kts 59°
2026-04-26 21:10 55.95452 -3.35403 116 ft 8 kts
2026-04-26 21:10 55.95502 -3.35443 112 ft 8 kts 329°
2026-04-26 21:11 55.95553 -3.35496 113 ft 10 kts 329°
2026-04-26 21:11 55.95567 -3.35573 113 ft 7 kts 250°
2026-04-26 21:11 55.95487 -3.35812 113 ft 57 kts 239°
2026-04-26 21:11 55.95143 -3.36827 113 ft 128 kts 239°
2026-04-26 21:12 55.94601 -3.38426 332 ft 162 kts 239°
2026-04-26 21:12 55.94016 -3.40165 1093 ft 165 kts 240°
2026-04-26 21:12 55.93431 -3.41925 1948 ft 164 kts 241°
2026-04-26 21:12 55.92820 -3.43630 2798 ft 162 kts 238°
2026-04-26 21:13 55.92171 -3.45346 3379 ft 176 kts 240°
2026-04-26 21:13 55.91491 -3.47317 3771 ft 199 kts 241°
2026-04-26 21:13 55.90742 -3.49555 4249 ft 221 kts 244°
2026-04-26 21:13 55.90302 -3.52196 4964 ft 231 kts 262°
2026-04-26 21:14 55.90027 -3.55099 5759 ft 237 kts 261°
2026-04-26 21:14 55.89742 -3.57999 6739 ft 238 kts 260°
2026-04-26 21:14 55.89454 -3.60880 7666 ft 241 kts 260°
2026-04-26 21:14 55.89157 -3.63829 8647 ft 243 kts 260°
2026-04-26 21:15 55.88856 -3.66851 9629 ft 246 kts 260°
2026-04-26 21:15 55.88555 -3.69836 10536 ft 249 kts 260°
2026-04-26 21:15 55.88179 -3.72892 11248 ft 261 kts 249°
2026-04-26 21:15 55.87113 -3.75658 11590 ft 288 kts 222°
2026-04-26 21:16 55.85237 -3.77237 11921 ft 316 kts 192°
2026-04-26 21:16 55.82994 -3.77600 12599 ft 328 kts 186°
2026-04-26 21:16 55.80694 -3.77751 13412 ft 333 kts 184°
2026-04-26 21:16 55.78357 -3.77833 14217 ft 338 kts 184°
2026-04-26 21:17 55.75997 -3.77913 14941 ft 342 kts 184°
2026-04-26 21:17 55.73599 -3.78015 15666 ft 346 kts 185°
2026-04-26 21:17 55.71177 -3.78143 16381 ft 351 kts 185°
2026-04-26 21:17 55.68724 -3.78293 17091 ft 355 kts 186°
2026-04-26 21:18 55.66243 -3.78458 17808 ft 359 kts 186°
2026-04-26 21:18 55.63737 -3.78633 18515 ft 362 kts 186°
2026-04-26 21:18 55.61202 -3.78810 19130 ft 366 kts 186°
2026-04-26 21:18 55.58643 -3.78983 19767 ft 369 kts 187°
2026-04-26 21:19 55.56066 -3.79156 20412 ft 372 kts 187°
2026-04-26 21:19 55.53472 -3.79329 21068 ft 375 kts 187°
2026-04-26 21:19 55.50853 -3.79500 21716 ft 378 kts 187°
2026-04-26 21:19 55.48215 -3.79672 22358 ft 380 kts 187°
2026-04-26 21:20 55.45559 -3.79848 22953 ft 384 kts 186°
2026-04-26 21:20 55.42876 -3.80024 23545 ft 388 kts 186°
2026-04-26 21:20 55.40170 -3.80199 24104 ft 391 kts 186°
2026-04-26 21:20 55.37442 -3.80377 24631 ft 393 kts 186°
2026-04-26 21:21 55.34702 -3.80554 25169 ft 395 kts 187°
2026-04-26 21:21 55.31946 -3.80732 25706 ft 396 kts 187°
2026-04-26 21:21 55.29187 -3.80915 26222 ft 398 kts 187°
2026-04-26 21:21 55.26415 -3.81097 26725 ft 399 kts 187°
2026-04-26 21:22 55.23665 -3.81168 27206 ft 404 kts 182°
2026-04-26 21:22 55.20817 -3.80479 27680 ft 413 kts 172°
2026-04-26 21:22 55.18048 -3.79047 28130 ft 417 kts 168°
2026-04-26 21:23 55.12492 -3.75981 29036 ft 420 kts 168°
2026-04-26 21:23 55.09730 -3.74464 29470 ft 422 kts 168°
2026-04-26 21:23 55.06919 -3.72926 29903 ft 424 kts 169°
2026-04-26 21:23 55.04097 -3.71388 30318 ft 426 kts 169°
2026-04-26 21:24 55.01264 -3.69848 30664 ft 428 kts 169°
2026-04-26 21:24 54.98413 -3.68298 30983 ft 430 kts 169°
2026-04-26 21:24 54.95548 -3.66742 31286 ft 433 kts 169°
2026-04-26 21:24 54.92672 -3.65182 31570 ft 434 kts 168°
2026-04-26 21:25 54.89779 -3.63613 31878 ft 436 kts 168°
2026-04-26 21:25 54.86875 -3.62040 32234 ft 437 kts 168°
2026-04-26 21:25 54.83975 -3.60467 32631 ft 436 kts 168°
2026-04-26 21:25 54.81085 -3.58901 33033 ft 435 kts 168°
2026-04-26 21:26 54.78185 -3.57341 33264 ft 435 kts 168°
2026-04-26 21:26 54.75345 -3.55810 33293 ft 420 kts 168°
2026-04-26 21:26 54.69873 -3.52850 33271 ft 407 kts 168°
2026-04-26 21:27 54.64480 -3.49974 33296 ft 405 kts 168°
2026-04-26 21:27 54.59099 -3.47126 33299 ft 404 kts 168°
2026-04-26 21:28 54.53730 -3.44279 33299 ft 404 kts 168°
2026-04-26 21:28 54.48353 -3.41420 33303 ft 404 kts 168°
2026-04-26 21:29 54.43858 -3.39033 33274 ft 404 kts 168°
2026-04-26 21:29 54.38495 -3.36198 33287 ft 403 kts 168°
2026-04-26 21:30 54.33148 -3.33380 33296 ft 402 kts 168°
2026-04-26 21:30 54.27801 -3.30576 33297 ft 402 kts 168°
2026-04-26 21:31 54.22459 -3.27783 33295 ft 401 kts 168°
2026-04-26 21:31 54.17085 -3.25402 33270 ft 395 kts 178°
2026-04-26 21:32 54.11675 -3.24529 33280 ft 393 kts 180°
2026-04-26 21:32 54.06188 -3.23672 33282 ft 393 kts 180°
2026-04-26 21:33 54.00777 -3.22827 33290 ft 394 kts 178°
2026-04-26 21:33 53.95323 -3.20927 33289 ft 398 kts 172°
2026-04-26 21:34 53.89957 -3.18885 33282 ft 398 kts 172°
2026-04-26 21:34 53.84551 -3.16835 33288 ft 398 kts 172°
2026-04-26 21:35 53.79153 -3.14792 33290 ft 397 kts 172°
2026-04-26 21:35 53.73757 -3.12776 33288 ft 397 kts 172°
2026-04-26 21:36 53.68366 -3.10755 33272 ft 396 kts 173°
2026-04-26 21:36 53.62995 -3.08738 33296 ft 395 kts 173°
2026-04-26 21:37 53.57640 -3.06725 33301 ft 394 kts 173°
2026-04-26 21:37 53.52293 -3.04724 33299 ft 393 kts 173°
2026-04-26 21:38 53.46957 -3.02742 33291 ft 393 kts 173°
2026-04-26 21:38 53.41589 -3.00762 33293 ft 392 kts 173°
2026-04-26 21:39 53.36262 -2.98797 33289 ft 392 kts 173°
2026-04-26 21:39 53.30942 -2.96826 33284 ft 392 kts 173°
2026-04-26 21:40 53.25616 -2.94862 33284 ft 392 kts 173°
2026-04-26 21:40 53.20296 -2.92910 33273 ft 391 kts 173°
2026-04-26 21:41 53.14978 -2.90966 33279 ft 391 kts 173°
2026-04-26 21:41 53.09668 -2.89026 33282 ft 391 kts 174°
2026-04-26 21:42 53.04370 -2.88559 33284 ft 381 kts 187°
2026-04-26 21:42 52.99054 -2.89020 32679 ft 383 kts 187°
2026-04-26 21:43 52.96407 -2.89241 32193 ft 379 kts 187°
2026-04-26 21:43 52.93797 -2.89457 31755 ft 374 kts 187°
2026-04-26 21:43 52.91209 -2.89675 31302 ft 370 kts 187°
2026-04-26 21:43 52.88660 -2.90000 30836 ft 365 kts 192°
2026-04-26 21:44 52.86155 -2.90602 30374 ft 362 kts 192°
2026-04-26 21:44 52.83668 -2.91195 29880 ft 359 kts 191°
2026-04-26 21:44 52.81210 -2.91774 29440 ft 355 kts 191°
2026-04-26 21:44 52.78777 -2.92346 29012 ft 351 kts 191°
2026-04-26 21:45 52.76369 -2.92908 28589 ft 347 kts 191°
2026-04-26 21:45 52.73988 -2.93461 28174 ft 343 kts 191°
2026-04-26 21:45 52.71642 -2.94003 27745 ft 340 kts 190°
2026-04-26 21:45 52.69279 -2.94272 27330 ft 338 kts 186°
2026-04-26 21:46 52.66933 -2.94467 26794 ft 339 kts 186°
2026-04-26 21:46 52.64591 -2.94658 26379 ft 336 kts 186°
2026-04-26 21:46 52.62265 -2.94850 25950 ft 333 kts 186°
2026-04-26 21:46 52.59951 -2.95045 25509 ft 332 kts 186°
2026-04-26 21:47 52.57651 -2.95239 25067 ft 331 kts 186°
2026-04-26 21:47 52.55355 -2.95429 24607 ft 331 kts 186°
2026-04-26 21:47 52.53054 -2.95620 24152 ft 331 kts 186°
2026-04-26 21:47 52.50754 -2.95813 23652 ft 331 kts 186°
2026-04-26 21:48 52.48453 -2.96005 23153 ft 330 kts 186°
2026-04-26 21:48 52.46168 -2.96188 22717 ft 328 kts 185°
2026-04-26 21:48 52.43897 -2.96372 22272 ft 326 kts 186°
2026-04-26 21:48 52.41636 -2.96560 21833 ft 325 kts 186°
2026-04-26 21:49 52.39383 -2.96747 21391 ft 324 kts 186°
2026-04-26 21:49 52.37136 -2.96932 20958 ft 323 kts 186°
2026-04-26 21:49 52.34893 -2.97115 20524 ft 322 kts 186°
2026-04-26 21:49 52.32655 -2.97296 20099 ft 322 kts 185°
2026-04-26 21:50 52.30418 -2.97480 19672 ft 322 kts 185°
2026-04-26 21:50 52.28936 -2.97604 19388 ft 322 kts 185°
2026-04-26 21:50 52.25948 -2.97848 18821 ft 322 kts 185°
2026-04-26 21:50 52.23706 -2.98023 18352 ft 322 kts 185°
2026-04-26 21:51 52.21475 -2.98200 17925 ft 320 kts 185°
2026-04-26 21:51 52.19256 -2.98378 17510 ft 318 kts 185°
2026-04-26 21:51 52.17052 -2.98556 17093 ft 316 kts 185°
2026-04-26 21:51 52.14857 -2.98734 16695 ft 315 kts 186°
2026-04-26 21:52 52.12677 -2.98913 16294 ft 313 kts 186°
2026-04-26 21:52 52.10513 -2.99089 16133 ft 309 kts 186°
2026-04-26 21:52 52.08368 -2.99263 16054 ft 308 kts 186°
2026-04-26 21:52 52.06226 -2.99436 15936 ft 308 kts 186°
2026-04-26 21:53 52.04087 -2.99605 15811 ft 307 kts 186°
2026-04-26 21:53 52.01956 -2.99773 15691 ft 306 kts 186°
2026-04-26 21:53 51.99859 -2.99944 15563 ft 306 kts 186°
2026-04-26 21:53 51.97694 -3.00123 15441 ft 307 kts 186°
2026-04-26 21:54 51.95582 -3.00131 15307 ft 310 kts 176°
2026-04-26 21:54 51.93480 -2.99364 15240 ft 314 kts 164°
2026-04-26 21:54 51.91430 -2.98138 14998 ft 313 kts 162°
2026-04-26 21:54 51.89389 -2.96906 14752 ft 312 kts 163°
2026-04-26 21:55 51.87353 -2.95676 14513 ft 311 kts 163°
2026-04-26 21:55 51.85325 -2.94455 14198 ft 311 kts 163°
2026-04-26 21:55 51.83304 -2.93244 13833 ft 309 kts 163°
2026-04-26 21:55 51.81287 -2.92043 13424 ft 309 kts 163°
2026-04-26 21:56 51.79277 -2.90848 12999 ft 308 kts 163°
2026-04-26 21:56 51.77273 -2.89659 12558 ft 307 kts 163°
2026-04-26 21:56 51.75266 -2.88467 12160 ft 306 kts 162°
2026-04-26 21:56 51.73281 -2.87287 11754 ft 304 kts 162°
2026-04-26 21:57 51.71295 -2.86114 11356 ft 302 kts 163°
2026-04-26 21:57 51.69274 -2.85210 10959 ft 300 kts 167°
2026-04-26 21:57 51.67280 -2.84348 10561 ft 291 kts 167°
2026-04-26 21:57 51.65366 -2.83513 10174 ft 279 kts 167°
2026-04-26 21:58 51.63529 -2.82737 9744 ft 268 kts 172°
2026-04-26 21:58 51.61730 -2.82890 9514 ft 259 kts 198°
2026-04-26 21:58 51.60040 -2.83895 9325 ft 259 kts 207°
2026-04-26 21:58 51.58435 -2.85197 9148 ft 258 kts 209°
2026-04-26 21:59 51.56849 -2.86545 8960 ft 258 kts 209°
2026-04-26 21:59 51.55267 -2.87903 8787 ft 259 kts 209°
2026-04-26 21:59 51.53684 -2.89266 8598 ft 257 kts 209°
2026-04-26 21:59 51.52121 -2.90608 8365 ft 252 kts 209°
2026-04-26 22:00 51.50606 -2.91971 8054 ft 247 kts 217°
2026-04-26 22:00 51.49386 -2.93873 7732 ft 244 kts 230°
2026-04-26 22:00 51.48293 -2.95942 7405 ft 243 kts 231°
2026-04-26 22:00 51.47216 -2.98026 7040 ft 243 kts 231°
2026-04-26 22:01 51.46110 -3.00059 6674 ft 243 kts 221°
2026-04-26 22:01 51.44613 -3.01239 6294 ft 242 kts 190°
2026-04-26 22:01 51.42942 -3.01560 5821 ft 241 kts 188°
2026-04-26 22:01 51.41320 -3.02121 5328 ft 237 kts 205°
2026-04-26 22:02 51.40100 -3.03769 5025 ft 230 kts 238°
2026-04-26 22:02 51.39645 -3.05326 4855 ft 228 kts 251°
2026-04-26 22:02 51.38853 -3.08395 4681 ft 226 kts 229°
2026-04-26 22:02 51.37580 -3.09795 4580 ft 224 kts 195°
2026-04-26 22:03 51.36055 -3.09811 4528 ft 221 kts 160°
2026-04-26 22:03 51.34824 -3.08501 4520 ft 208 kts 128°
2026-04-26 22:03 51.34309 -3.06455 4518 ft 199 kts 90°
2026-04-26 22:03 51.34686 -3.04424 4513 ft 190 kts 53°
2026-04-26 22:04 51.35475 -3.02734 4434 ft 190 kts 56°
2026-04-26 22:04 51.36209 -3.00993 4098 ft 188 kts 57°
2026-04-26 22:04 51.36827 -2.99232 3843 ft 174 kts 70°
2026-04-26 22:04 51.37113 -2.97449 3622 ft 159 kts 81°
2026-04-26 22:05 51.37258 -2.95722 3421 ft 155 kts 84°
2026-04-26 22:05 51.37360 -2.93984 3207 ft 158 kts 85°
2026-04-26 22:05 51.37445 -2.92225 2998 ft 159 kts 86°
2026-04-26 22:05 51.37522 -2.90464 2777 ft 159 kts 86°
2026-04-26 22:06 51.37596 -2.88699 2560 ft 159 kts 86°
2026-04-26 22:06 51.37668 -2.86936 2346 ft 159 kts 86°
2026-04-26 22:06 51.37739 -2.85188 2126 ft 153 kts 86°
2026-04-26 22:06 51.37806 -2.83544 1952 ft 145 kts 86°
2026-04-26 22:07 51.37869 -2.81975 1740 ft 137 kts 86°
2026-04-26 22:07 51.37928 -2.80481 1551 ft 133 kts 87°
2026-04-26 22:07 51.37987 -2.79009 1369 ft 132 kts 87°
2026-04-26 22:07 51.38025 -2.78035 1249 ft 132 kts 87°
2026-04-26 22:08 51.38113 -2.76058 990 ft 134 kts 87°
2026-04-26 22:08 51.38169 -2.74572 833 ft 134 kts 86°
2026-04-26 22:08 51.38225 -2.73086 639 ft 133 kts 88°
2026-04-26 22:08 51.38271 -2.71820 615 ft 81 kts 86°
2026-04-26 22:09 51.38290 -2.71329 616 ft 28 kts 86°
2026-04-26 22:09 51.38300 -2.71018 614 ft 28 kts 87°
2026-04-26 22:09 51.38318 -2.70783 608 ft 16 kts 63°
2026-04-26 22:09 51.38390 -2.70732 612 ft 8 kts 17°
2026-04-26 22:10 51.38439 -2.70710 611 ft 7 kts
2026-04-26 22:10 51.38468 -2.70743 620 ft 5 kts 298°
2026-04-26 22:10 51.38470 -2.70834 613 ft 8 kts 265°
2026-04-26 22:10 51.38468 -2.70881 621 ft 6 kts 265°
2026-04-26 22:11 51.38463 -2.71011 615 ft 12 kts 266°
2026-04-26 22:11 51.38479 -2.71071 617 ft 5 kts 338°
2026-04-26 22:11 51.38510 -2.71077 612 ft 1 kts 354°
2026-04-26 22:11 51.38515 -2.71078 612 ft 1 kts 357°
2026-04-26 22:12 51.38522 -2.71078 612 ft 1 kts 357°
2026-04-26 22:12 51.38523 -2.71078 612 ft 0 kts 357°